#timestamp,LO_Frequency,Hit,StdDev 
1609259455.3,286047029.5,P
1609259475.2,286047025.7,P
1609259495.9,286047024.4,P
1609259515.7,286047022.2,Y
1609259535.6,286046996.7,P
1609259555.4,286046997.6,N
1609259575.2,286046996.2,N
1609259595.1,286046999.5,N
1609259596.0,286046999.5,N
1609259615.8,286046996.7,N
1609259635.7,286046999.6,N
1609259655.5,286046997.7,N
1609259675.3,286046995.9,N
1609259695.2,286046995.7,N
1609259715.0,286046995.6,N
1609259715.9,286046995.6,N
1609259735.7,286046995.9,N
1609259755.6,286046995.1,N
1609259775.4,286046995.1,N
1609259795.3,286046996.3,N
1609259815.1,286046997.6,N
1609259816.0,286046997.6,N
1609259835.8,286046999.1,N
1609259855.7,286046999.9,N
1609259875.5,286046999.8,N
1609259895.4,286047001.9,N
1609259915.2,286047000.9,N
1609259935.0,286047001.0,N
1609259935.9,286047001.0,N
1609259955.8,286046999.8,N
1609259975.6,286047001.9,N
1609259995.4,286047002.3,N
1609260015.3,286047002.6,N
1609260035.1,286047011.9,N
1609260055.9,286047001.4,N
1609260075.7,286047001.4,N
1609260095.5,286047004.0,N
1609260115.4,286047001.8,N
1609260135.2,286047001.6,N
1609260155.0,286047001.5,N
1609260155.9,286047001.5,N
1609260175.8,286047002.5,N
1609260195.6,286047004.0,N
1609260215.5,286047003.7,N
1609260235.3,286047003.5,N
1609260255.1,286047001.5,N
1609260275.9,286047000.2,N
1609260295.7,286046999.7,N
1609260315.5,286047002.0,N
1609260335.4,286047001.3,N
1609260355.2,286047001.6,N
1609260375.1,286047001.4,N
1609260376.0,286047001.4,N
1609260395.8,286047004.3,N
1609260415.6,286047001.3,N
1609260435.5,286047003.7,N
1609260455.3,286047001.8,N
1609260475.1,286047002.2,N
1609260495.9,286047004.0,N
1609260515.7,286047004.3,N
1609260535.6,286047003.4,N
1609260555.4,286047002.9,N
1609260575.2,286047003.4,N
1609260595.1,286047007.4,Y
1609260596.0,286047007.4,P
1609260615.8,286047003.4,N
1609260635.7,286047004.0,N
1609260655.5,286047004.4,N
1609260675.3,286047001.5,N
1609260695.2,286047001.4,N
1609260715.0,286047001.4,N
1609260715.9,286047001.4,N
1609260735.7,286047002.6,N
1609260755.6,286047001.6,N
1609260775.4,286047002.5,N
1609260795.3,286047002.8,N
1609260815.1,286047000.4,N
1609260816.0,286047000.4,N
1609260835.8,286047002.3,N
1609260855.7,286046998.5,N
1609260875.5,286046999.8,N
1609260895.3,286047001.5,N
1609260915.2,286047001.4,N
1609260935.0,286047002.2,N
1609260935.9,286047002.2,N
1609260955.8,286046999.7,N
1609260975.6,286047002.6,N
1609260995.4,286047004.2,N
1609261015.3,286047001.3,N
1609261035.1,286047002.6,N
1609261055.9,286046999.9,N
1609261075.7,286047001.7,N
1609261095.5,286047003.7,N
1609261115.4,286047005.3,Y
1609261135.2,286047003.9,P
1609261155.0,286047002.6,N
1609261155.9,286047002.6,P
1609261175.8,286047000.3,N
1609261195.6,286047000.3,N
